Regional Weather Roundup
Issued by NWS

Home | Current Version | Previous Version | Graphics & Text | Print | Product List | Glossary On
Versions: 1 2 3 4 5 6 7 8 9 10 11 12 13 14 15 16 17 18 19 20 21 22 23 24 25 26 27 28 29 30 31 32 33 34 35 36 37 38 39 40 41 42 43 44 45 46 47 48 49 50
790
ASUS43 KLMK 261210
RWRKY
KENTUCKY REGIONAL WEATHER ROUNDUP
NATIONAL WEATHER SERVICE LOUISVILLE KY
800 AM EDT THU APR 26 2018

NOTE "FAIR" INDICATES FEW OR NO CLOUDS BELOW 12,000 FEET
WITH NO SIGNIFICANT WEATHER AND/OR OBSTRUCTIONS TO VISIBILITY.

KYZ001>023-026-027-061>063-070>075-261300-
WESTERN AND SOUTH CENTRAL KENTUCKY

CITY           SKY/WX    TMP DP  RH WIND       PRES   REMARKS
PADUCAH        CLOUDY    55  50  83 NE6       29.87R
HENDERSON      FAIR      54  37  52 NE7       29.93R
OWENSBORO      PTSUNNY   53  39  59 NE7       29.92R
HOPKINSVILLE   LGT RAIN  56  53  90 E3        29.87R
BOWLING GREEN  PTSUNNY   56  50  80 N3        29.89R
GLASGOW        FAIR      53  48  85 NE5       29.89R
$$

KYZ024-025-028>034-038-045-046-053-261300-
NORTH CENTRAL KENTUCKY

CITY           SKY/WX    TMP DP  RH WIND       PRES   REMARKS
LOUISVILLE/SDF PTSUNNY   50  34  54 N6        29.91R
LOUISVILLE/LOU FAIR      49  37  63 N3        29.91R
FORT KNOX      FAIR      47  36  65 N5        29.91R
$$

KYZ035>037-039>044-047>052-055>060-089>105-261300-
NORTHEAST KENTUCKY

CITY           SKY/WX    TMP DP  RH WIND       PRES   REMARKS
LEXINGTON      PTSUNNY   48  41  76 CALM      29.90R
COVINGTON      FAIR      43  34  70 N7        29.89S
FRANKFORT      PTSUNNY   47  38  71 CALM      29.88R
$$

KYZ054-064>069-076>088-106>120-261300-
SOUTHEAST KENTUCKY

CITY           SKY/WX    TMP DP  RH WIND       PRES   REMARKS
JACKSON        PTSUNNY   50  49  96 CALM      29.90R FOG
LONDON         FAIR      47  47 100 CALM      29.90R
SOMERSET       FAIR      46  46 100 CALM      29.92R
MIDDLESBORO    FOG       48  48 100 CALM      29.92R VSB 1/4
MONTICELLO     NOT AVBL
$$





USA.gov is the U.S. government's official web portal to all federal, state and local government web resources and services.